Date String (YYYY-MM-DD hh:mm:ss) UTC,Instrument flags,Ambient pressure (hPa),Sample flow (lpm),Bypass flow (lpm),Sample temperature (°C),Ambient temperature (°C),ASC tube jacket temperature (°C),LED temperature (°C),Box temperature (°C),Sample RH (%),Span deviation,Mass concentration (μg/m³),Mass concentration (μg/m³),Mass concentration (μg/m³)
DateTimeUTC,F1_M11,P_M11,Q1_M11,Q2_M11,T1_M11,T2_M11,T3_M11,T4_M11,T5_M11,U1_M11,ZSPAN_M11,X2_M11,X0_M11,X1_M11
2022-10-21 11:00:00,,0821.3,4.99,0.00,29.6,27.9,00.0,38.5,31.3,07.7,0000.0,0002.18,0006.73,0001.66
2022-10-21 11:01:00,,0821.3,5.01,0.00,29.6,27.9,00.0,38.5,31.3,07.8,0000.0,0002.10,0005.77,0001.64
2022-10-21 11:02:00,,0821.4,5.01,0.00,29.6,27.9,00.0,38.5,31.3,07.8,0000.0,0002.10,0005.70,0001.64
2022-10-21 11:03:00,,0821.4,4.99,0.00,29.6,27.9,00.0,38.5,31.2,07.8,0000.0,0002.08,0005.62,0001.63
2022-10-21 11:04:00,,0821.3,4.99,0.00,29.5,27.9,00.0,38.5,31.3,07.7,0000.0,0002.05,0005.58,0001.60
2022-10-21 11:05:00,,0821.3,5.00,0.00,29.5,27.9,00.0,38.5,31.3,07.7,0000.0,0002.03,0006.26,0001.60
2022-10-21 11:06:00,,0821.3,5.00,0.00,29.5,27.8,00.0,38.5,31.2,07.7,0000.0,0002.08,0006.14,0001.59
2022-10-21 11:07:00,,0821.4,5.00,0.00,29.5,27.8,00.0,38.5,31.1,07.7,0000.0,0002.14,0006.15,0001.59
2022-10-21 11:08:00,,0821.3,5.00,0.00,29.5,27.8,00.0,38.5,31.2,07.7,0000.0,0002.12,0005.71,0001.59
2022-10-21 11:09:00,,0821.3,5.00,0.00,29.5,27.8,00.0,38.4,31.2,07.7,0000.0,0002.09,0006.46,0001.58
2022-10-21 11:10:00,,0821.4,4.99,0.00,29.5,27.8,00.0,38.4,31.2,07.6,0000.0,0002.08,0007.10,0001.59
2022-10-21 11:11:00,,0821.4,5.00,0.00,29.5,27.7,00.0,38.4,31.1,07.5,0000.0,0002.11,0007.42,0001.59
2022-10-21 11:12:00,,0821.4,4.99,0.00,29.5,27.7,00.0,38.4,31.1,07.6,0000.0,0002.16,0007.71,0001.60
2022-10-21 11:13:00,,0821.4,4.99,0.00,29.5,27.7,00.0,38.4,31.1,07.6,0000.0,0002.21,0007.77,0001.62
2022-10-21 11:14:00,,0821.4,5.00,0.00,29.4,27.7,00.0,38.4,31.1,07.5,0000.0,0002.23,0007.78,0001.63
2022-10-21 11:15:00,,0821.4,5.01,0.00,29.5,27.7,00.0,38.4,31.1,07.5,0000.0,0002.26,0007.84,0001.65
2022-10-21 11:16:00,,0821.4,4.99,0.00,29.4,27.7,00.0,38.4,31.1,07.6,0000.0,0002.28,0008.43,0001.67
2022-10-21 11:17:00,,0821.4,5.00,0.00,29.4,27.7,00.0,38.4,31.1,07.5,0000.0,0002.22,0008.40,0001.68
2022-10-21 11:18:00,,0821.4,5.00,0.00,29.4,27.7,00.0,38.4,31.2,07.6,0000.0,0002.18,0008.13,0001.70
2022-10-21 11:19:00,,0821.4,5.01,0.00,29.4,27.8,00.0,38.4,31.2,07.7,0000.0,0002.19,0008.19,0001.70
2022-10-21 11:20:00,,0821.4,5.00,0.00,29.4,27.8,00.0,38.4,31.2,07.7,0000.0,0002.21,0007.84,0001.71
2022-10-21 11:21:00,,0821.5,5.01,0.00,29.4,27.7,00.0,38.4,31.1,07.6,0000.0,0002.25,0007.36,0001.73
2022-10-21 11:22:00,,0821.4,4.99,0.00,29.4,27.7,00.0,38.4,31.1,07.7,0000.0,0002.28,0007.32,0001.72
2022-10-21 11:23:00,,0821.4,4.99,0.00,29.4,27.7,00.0,38.3,31.1,07.7,0000.0,0002.30,0007.39,0001.72
2022-10-21 11:24:00,,0821.4,5.00,0.00,29.4,27.6,00.0,38.3,31.0,07.6,0000.0,0002.27,0007.58,0001.71
2022-10-21 11:25:00,,0821.4,5.01,0.00,29.4,27.6,00.0,38.3,31.1,07.6,0000.0,0002.28,0007.62,0001.70
2022-10-21 11:26:00,,0821.4,5.00,0.00,29.4,27.6,00.0,38.3,31.0,07.6,0000.0,0002.29,0007.65,0001.68
2022-10-21 11:27:00,,0821.4,4.99,0.00,29.3,27.6,00.0,38.3,30.9,07.6,0000.0,0002.25,0006.87,0001.66
2022-10-21 11:28:00,,0821.4,5.00,0.00,29.3,27.5,00.0,38.3,30.9,07.6,0000.0,0002.25,0005.80,0001.65
2022-10-21 11:29:00,,0821.4,5.00,0.00,29.3,27.5,00.0,38.3,31.0,07.6,0000.0,0002.26,0005.70,0001.63
2022-10-21 11:30:00,,0821.4,5.00,0.00,29.3,27.5,00.0,38.3,31.0,07.6,0000.0,0002.27,0005.82,0001.65
2022-10-21 11:31:00,,0821.4,5.01,0.00,29.3,27.5,00.0,38.3,31.0,07.7,0000.0,0002.27,0005.26,0001.65
2022-10-21 11:32:00,,0821.4,5.00,0.00,29.3,27.5,00.0,38.2,31.0,07.7,0000.0,0002.22,0005.09,0001.63
2022-10-21 11:33:00,,0821.4,5.01,0.00,29.3,27.5,00.0,38.2,31.0,07.7,0000.0,0002.22,0005.33,0001.61
2022-10-21 11:34:00,,0821.4,4.98,0.00,29.3,27.5,00.0,38.2,30.9,07.7,0000.0,0002.18,0005.68,0001.60
2022-10-21 11:35:00,,0821.5,5.01,0.00,29.3,27.5,00.0,38.2,31.0,07.7,0000.0,0002.18,0006.06,0001.59
2022-10-21 11:36:00,,0821.4,5.00,0.00,29.3,27.5,00.0,38.2,31.0,07.7,0000.0,0002.17,0006.16,0001.57
2022-10-21 11:37:00,,0821.4,5.01,0.00,29.2,27.5,00.0,38.2,30.9,07.6,0000.0,0002.23,0006.31,0001.57
2022-10-21 11:38:00,,0821.4,5.00,0.00,29.2,27.5,00.0,38.2,30.9,07.6,0000.0,0002.25,0006.35,0001.57
2022-10-21 11:39:00,,0821.4,4.99,0.00,29.2,27.5,00.0,38.2,30.9,07.6,0000.0,0002.24,0006.14,0001.56
2022-10-21 11:40:00,,0821.4,5.00,0.00,29.2,27.5,00.0,38.2,31.0,07.6,0000.0,0002.20,0005.79,0001.56
2022-10-21 11:41:00,,0821.4,5.01,0.00,29.2,27.5,00.0,38.2,31.0,07.6,0000.0,0002.19,0005.69,0001.55
2022-10-21 11:42:00,,0821.4,5.00,0.00,29.2,27.5,00.0,38.2,30.9,07.6,0000.0,0002.17,0005.60,0001.55
2022-10-21 11:43:00,,0821.4,5.01,0.00,29.2,27.5,00.0,38.2,30.9,07.6,0000.0,0002.20,0007.05,0001.56
2022-10-21 11:44:00,,0821.4,5.00,0.00,29.2,27.5,00.0,38.1,31.0,07.6,0000.0,0002.18,0007.49,0001.57
2022-10-21 11:45:00,,0821.4,4.99,0.00,29.2,27.5,00.0,38.1,31.0,07.6,0000.0,0002.16,0006.82,0001.58
2022-10-21 11:46:00,,0821.4,5.00,0.00,29.2,27.6,00.0,38.1,31.0,07.6,0000.0,0002.15,0005.69,0001.59
2022-10-21 11:47:00,,0821.4,4.99,0.00,29.2,27.6,00.0,38.1,31.1,07.6,0000.0,0002.16,0005.61,0001.61
2022-10-21 11:48:00,,0821.4,5.01,0.00,29.2,27.6,00.0,38.1,31.1,07.6,0000.0,0002.10,0005.45,0001.62
2022-10-21 11:49:00,,0821.4,4.99,0.00,29.2,27.6,00.0,38.1,31.0,07.6,0000.0,0002.03,0005.28,0001.62
2022-10-21 11:50:00,,0821.4,5.00,0.00,29.2,27.5,00.0,38.1,31.0,07.6,0000.0,0002.06,0005.49,0001.64
2022-10-21 11:51:00,,0821.4,5.02,0.00,29.2,27.6,00.0,38.1,31.0,07.6,0000.0,0002.10,0005.58,0001.64
2022-10-21 11:52:00,,0821.4,5.00,0.00,29.2,27.5,00.0,38.1,30.9,07.6,0000.0,0002.12,0005.73,0001.64
2022-10-21 11:53:00,,0821.4,4.99,0.00,29.2,27.5,00.0,38.1,30.9,07.6,0000.0,0002.12,0006.02,0001.64
2022-10-21 11:54:00,,0821.4,5.00,0.00,29.1,27.5,00.0,38.1,30.9,07.6,0000.0,0002.14,0004.90,0001.66
2022-10-21 11:55:00,,0821.4,5.01,0.00,29.1,27.5,00.0,38.1,30.9,07.7,0000.0,0002.14,0004.00,0001.65
2022-10-21 11:56:00,,0821.4,4.99,0.00,29.1,27.5,00.0,38.1,30.9,07.7,0000.0,0002.14,0004.01,0001.66
2022-10-21 11:57:00,,0821.4,5.00,0.00,29.1,27.5,00.0,38.1,31.0,07.6,0000.0,0002.18,0004.17,0001.66
2022-10-21 11:58:00,,0821.4,5.00,0.00,29.1,27.5,00.0,38.1,30.9,07.6,0000.0,0002.17,0004.23,0001.67
2022-10-21 11:59:00,,0821.4,5.00,0.00,29.1,27.5,00.0,38.1,30.9,07.6,0000.0,0002.15,0004.31,0001.65
